Liberia, Costa Rica

12:07 AM CST on October 01, 2016 (GMT -0600)
Daniel Oduber Quiros International

Weather History for MRLB - January, 2014

Change the Weather History Date:

Tuesday, January 14, 2014

  Actual Average Record
Temperature  
Mean Temperature 78 °F -  
Max Temperature 92 °F 88 °F 94 °F (2015)
Min Temperature 64 °F 73 °F 64 °F (2014)
Cooling Degree Days 13    
Growing Degree Days 28 (Base 50)    
Moisture  
Dew Point 65 °F    
Average Humidity 56    
Maximum Humidity 88    
Minimum Humidity 32    
Precipitation  
Precipitation 0.00 in - - ()
Sea Level Pressure  
Sea Level Pressure 29.84 in    
Wind  
Wind Speed 9 mph ()    
Max Wind Speed 18 mph    
Max Gust Speed -    
Visibility 10.3 miles    
Events      
Averages and records for this station are not official NWS values.
T = Trace of Precipitation, MM = Missing Value Source: Averaged Metar Reports

Daily Weather History Graph

Daily Weather History Graph

Search for Another Location

Airport or City:

Trip Planner

Search our weather history database for the weather conditions in past years. The results will help you decide how hot, cold, wet, or windy it might be!

Date:

Astronomy

Jan. 14, 2014 Rise Set
Actual Time 6:04 AM CST 5:38 PM CST
Civil Twilight 5:41 AM CST 6:00 PM CST
Nautical Twilight 5:15 AM CST 6:26 PM CST
Astronomical Twilight 4:49 AM CST 6:52 PM CST
Moon 4:37 PM CST (1/14) 4:42 AM CST (1/14)
Length of Visible Light 12h 19m
Length of Day
11h 34m
Waxing Gibbous, 98% of the Moon is Illuminated
Jan 14
Waxing Gibbous
Jan 15
Full
Jan 23
Last Quarter
Jan 30
New
Feb 6
First Quarter

Hourly Weather History & Observations

Time (CST) Temp. Heat Index Dew Point Humidity Pressure Visibility Wind Dir Wind Speed Gust Speed Precip Events Conditions
6:00 AM 66 °F - 63 °F 88% 29.87 in 12 mi East 5.8 mph - -  
6:00 AM 66.2 °F - 62.6 °F 88% 29.86 in - East 5.8 mph - N/A   Clear
7:00 AM 68.0 °F - 64.4 °F 88% 29.89 in - NNW 5.8 mph - N/A   Clear
8:00 AM 75.2 °F - 66.2 °F 73% 29.91 in - SW 6.9 mph - N/A   Clear
9:00 AM 81 °F - 66 °F 50% 29.93 in 12 mi South 6.9 mph - -  
9:00 AM 80.6 °F 82.7 °F 66.2 °F 61% 29.91 in - South 6.9 mph - N/A   Clear
10:00 AM 87.8 °F 89.4 °F 64.4 °F 46% 29.89 in - East 8.1 mph - N/A   Clear
12:00 PM 92 °F - 65 °F 32% 29.85 in 12 mi East 12.7 mph - -  
12:00 PM 91.4 °F 94.0 °F 66.2 °F 43% 29.83 in - East 12.7 mph - N/A   Clear
1:00 PM 91.4 °F 93.2 °F 64.4 °F 41% 29.81 in 6.2 mi East 16.1 mph - N/A   Partly Cloudy
2:00 PM 89.6 °F 92.2 °F 66.2 °F 46% 29.78 in 6.2 mi East 16.1 mph - N/A   Partly Cloudy
3:00 PM 89 °F - 64 °F 33% 29.79 in 12 mi East 18.4 mph - -  
3:00 PM 89.6 °F 91.1 °F 64.4 °F 43% 29.77 in - East 18.4 mph - N/A   Clear
4:00 PM 86.0 °F 87.3 °F 64.4 °F 48% 29.77 in - East 15.0 mph - N/A   Clear
5:00 PM 84.2 °F 85.6 °F 64.4 °F 51% 29.79 in - East 16.1 mph - N/A   Clear
6:00 PM 82 °F - 65 °F 47% 29.82 in 12 mi East 13.8 mph - -  
6:00 PM 82.4 °F 83.9 °F 64.4 °F 54% 29.81 in - East 13.8 mph - N/A   Clear
7:00 PM 80.6 °F 82.7 °F 66.2 °F 61% 29.81 in - East 12.7 mph - N/A   Clear
8:00 PM 78.8 °F - 66.2 °F 65% 29.85 in - ENE 9.2 mph - N/A   Clear